User: anonymous   Login
Location: Unspecified
(0.0000°N, 0.0000°E)
Time: 03:26:35
(UTC+01:00)
Language:

Cosmos 2237 Rocket - Orbit

View from above orbital plane
View from above orbital plane
View from above satellite
View from above satellite

Ground track
Ground track

The orbit data is extracted from the following two-line orbital elements,

1 22566U 93016B   16040.96289660 -.00000019 +00000-0 +14739-4 0  9996
2 22566 071.0087 022.2053 0009893 177.5371 182.5802 14.14924909181492
Epoch (UTC): 09 February 2016 23:06:34
Eccentricity: 0.0009893
inclination: 71.0087°
perigee height: 835 km
apogee height: 850 km
right ascension of ascending node: 22.2053°
argument of perigee: 177.5371°
revolutions per day: 14.14924909
mean anomaly at epoch: 182.5802°
orbit number at epoch: 18149

The dashed part of the orbit path shows where the satellite is in the earth's shadow,  

DLR